Home   Weather   Enns   Past weeks

Flag for Austria Past Weather in Enns, Upper Austria, Austria — Yesterday and Last 2 Weeks

Now
69 °F

Overcast.


Feels Like: 69 °F
Forecast: 58 / 75 °F
Wind: 8 mph from Northwest

Location: Linz / Hoersching-Flughafen

Current Time: Jul 27, 2017 at 4:50:13 pm

Latest Report: Jul 27, 2017 at 4:00 pm


Visibility: 25 mi

Pressure: 29.85 "Hg

Humidity: 62%

Dew Point: 55 °F

Location of EnnsLocation

Past Weather in Enns — Graph

°F

Enns Temperature Yesterday

Maximum temperature yesterday: 61 °F (at 7:00 pm)
Minimum temperature yesterday: 54 °F (at 8:00 am)
Average temperature yesterday: 57 °F

High & Low Weather Summary for the Past Weeks

 TemperatureHumidityPressure
High90 °F (Jul 19, 5:00 pm)99% (Jul 21, 7:00 am)30.29 "Hg (Jul 21, 7:00 am)
Low51 °F (Jul 16, 5:00 am)25% (Jul 13, 7:00 pm)29.66 "Hg (Jul 26, 8:00 am)
Average67 °F67%29.97 "Hg
* Reported Jul 12 3:00 pm — Jul 27 3:00 pm, Enns. Weather by CustomWeather, © 2017

Note: Actual official high and low records may vary slightly from our data, if they occured in-between our weather recording intervals... More about our weather records

Advertising

Enns Weather History for the Previous 24 Hours

Scroll right to see more
 ConditionsComfort  
Time TempWeatherWind HumidityBarometerVisibility
3:00 pm
Thu, Jul 27
68 °FOvercast.6 mph63%29.85 "Hg16 mi
2:00 pm67 °FOvercast.9 mph65%29.85 "Hg22 mi
1:00 pm68 °FOvercast.6 mph65%29.85 "Hg28 mi
12:00 pm67 °FPassing clouds.15 mph68%29.86 "Hg2 mi
11:00 am66 °FScattered clouds.7 mph72%29.87 "Hg16 mi
10:00 am63 °FScattered clouds.5 mph79%29.88 "Hg22 mi
9:00 am60 °FLow clouds.8 mph85%29.88 "Hg22 mi
8:00 am58 °FLow clouds.3 mph91%29.88 "Hg19 mi
7:00 am57 °FLow clouds.5 mph94%29.88 "Hg16 mi
6:00 am56 °FHeavy rain. Low clouds.5 mph96%29.87 "Hg3 mi
5:00 am55 °FLight rain. Low clouds.N/A95%29.88 "Hg16 mi
4:00 am55 °FLight rain. Low clouds.5 mph94%29.87 "Hg8 mi
3:00 am56 °FLight rain. Overcast.6 mph92%29.87 "Hg9 mi
2:00 am56 °FLight rain. Overcast.5 mph93%29.86 "Hg11 mi
1:00 amN/APassing clouds.10 mphN/AN/A7 mi
12:00 am58 °FRain showers. Overcast.9 mph90%29.85 "Hg10 mi
11:00 pm
Wed, Jul 26
N/APassing clouds.10 mphN/AN/A14 mi
10:00 pm58 °FLight rain. Overcast.10 mph90%29.82 "Hg11 mi
9:00 pm58 °FRain showers. Overcast.9 mph91%29.79 "Hg16 mi
8:00 pm59 °FLow clouds.9 mph88%29.77 "Hg28 mi
7:00 pm61 °FOvercast.12 mph82%29.75 "Hg31 mi
6:00 pm60 °FOvercast.9 mph87%29.73 "Hg16 mi
5:00 pm58 °FLow clouds.8 mph94%29.72 "Hg9 mi
4:00 pm58 °FLight rain. Low clouds.9 mph90%29.72 "Hg4 mi
Weather by CustomWeather, © 2017

See weather overviewHow to use our weather pages